QPF
0.01 0.00 0.00 0.00 0.00 0.00 0.01 0.01 0.01 0.01 0.01 0.00 0.00 0.01 0.01 0.01 0.01 0.01 0.01 0.01 0.01 0.02 0.02 0.02 0.02 0.02 0.03 0.04 0.04 0.07 0.09 0.09 0.08 0.09 0.09 0.09 0.09 0.08
0.01 0.00 0.00 0.00 0.00 0.01 0.01 0.01 0.01 0.01 0.01 0.00 0.00 0.00 0.00 0.00 0.01 0.00 0.01 0.01 0.01 0.01 0.02 0.02 0.03 0.03 0.01 0.02 0.02 0.03 0.04 0.05 0.07 0.08 0.08 0.08 0.07 0.07
0.01 0.00 0.00 0.00 0.01 0.01 0.00 0.00 0.01 0.01 0.00 0.00 0.00 0.00 0.00 0.00 0.00 0.00 0.00 0.01 0.01 0.01 0.02 0.02 0.02 0.02 0.02 0.02 0.02 0.02 0.02 0.03 0.05 0.07 0.09 0.09 0.08 0.07
0.00 0.00 0.00 0.00 0.00 0.00 0.00 0.00 0.00 0.00 0.00 0.00 0.00 0.00 0.00 0.00 0.00 0.00 0.00 0.00 0.00 0.00 0.01 0.02 0.02 0.02 0.02 0.02 0.02 0.02 0.02 0.02 0.03 0.04 0.06 0.09 0.11 0.10
0.00 0.00 0.00 0.00 0.00 0.00 0.00 0.00 0.00 0.00 0.00 0.00 0.00 0.00 0.00 0.00 0.00 0.00 0.00 0.00 0.00 0.00 0.00 0.01 0.01 0.02 0.03 0.02 0.02 0.02 0.03 0.03 0.03 0.03 0.05 0.08 0.09 0.09
0.00 0.00 0.00 0.00 0.00 0.00 0.00 0.00 0.00 0.00 0.00 0.00 0.00 0.00 0.00 0.00 0.00 0.00 0.00 0.00 0.00 0.00 0.00 0.01 0.01 0.01 0.02 0.03 0.04 0.03 0.04 0.04 0.04 0.04 0.05 0.08 0.10 0.10
0.00 0.00 0.00 0.00 0.00 0.00 0.00 0.00 0.00 0.01 0.00 0.00 0.00 0.00 0.00 0.00 0.00 0.00 0.00 0.00 0.00 0.00 0.00 0.01 0.02 0.01 0.01 0.02 0.03 0.04 0.06 0.05 0.05 0.05 0.04 0.06 0.08 0.09
0.00 0.00 0.00 0.00 0.00 0.00 0.00 0.00 0.00 0.00 0.01 0.00 0.00 0.00 0.00 0.00 0.00 0.00 0.01 0.01 0.01 0.01 0.01 0.02 0.03 0.02 0.02 0.02 0.03 0.03 0.04 0.06 0.05 0.04 0.04 0.04 0.05 0.06
0.00 0.00 0.00 0.00 0.00 0.00 0.00 0.00 0.00 0.00 0.00 0.00 0.00 0.00 0.00 0.00 0.00 0.01 0.01 0.01 0.01 0.01 0.02 0.02 0.03 0.03 0.03 0.03 0.03 0.04 0.04 0.04 0.05 0.04 0.04 0.03 0.04 0.05
0.00 0.00 0.00 0.00 0.00 0.00 0.00 0.00 0.00 0.01 0.00 0.00 0.00 0.01 0.01 0.01 0.01 0.01 0.01 0.02 0.02 0.02 0.02 0.02 0.02 0.03 0.03 0.03 0.02 0.03 0.04 0.04 0.03 0.03 0.03 0.03 0.03 0.04
0.00 0.00 0.00 0.00 0.00 0.00 0.00 0.00 0.00 0.00 0.00 0.01 0.01 0.01 0.01 0.02 0.02 0.03 0.02 0.02 0.01 0.01 0.02 0.03 0.02 0.02 0.02 0.03 0.03 0.02 0.03 0.04 0.03 0.03 0.04 0.04 0.04 0.04
0.00 0.00 0.00 0.00 0.00 0.00 0.00 0.00 0.00 0.01 0.01 0.01 0.01 0.01 0.01 0.01 0.01 0.02 0.03 0.03 0.03 0.02 0.02 0.03 0.03 0.04 0.03 0.02 0.03 0.03 0.02 0.03 0.03 0.03 0.03 0.04 0.05 0.06
0.00 0.00 0.00 0.00 0.00 0.00 0.00 0.00 0.01 0.01 0.01 0.01 0.01 0.01 0.01 0.01 0.01 0.01 0.02 0.03 0.04 0.02 0.02 0.03 0.04 0.06 0.05 0.04 0.03 0.03 0.03 0.03 0.03 0.03 0.02 0.03 0.04 0.05
0.00 0.00 0.00 0.00 0.00 0.00 0.00 0.00 0.01 0.01 0.00 0.01 0.01 0.00 0.01 0.01 0.01 0.01 0.01 0.02 0.02 0.02 0.02 0.03 0.05 0.06 0.08 0.07 0.04 0.03 0.05 0.05 0.05 0.04 0.03 0.03 0.04 0.05
0.00 0.00 0.00 0.00 0.00 0.00 0.00 0.00 0.00 0.00 0.01 0.01 0.01 0.01 0.01 0.01 0.01 0.01 0.01 0.02 0.02 0.02 0.02 0.03 0.05 0.06 0.08 0.08 0.07 0.05 0.05 0.06 0.06 0.06 0.06 0.05 0.04 0.04
0.00 0.00 0.00 0.00 0.00 0.00 0.00 0.01 0.00 0.01 0.01 0.01 0.01 0.00 0.00 0.01 0.01 0.02 0.02 0.02 0.03 0.04 0.03 0.03 0.05 0.08 0.09 0.08 0.08 0.07 0.06 0.06 0.06 0.07 0.06 0.06 0.06 0.05
0.00 0.00 0.00 0.00 0.00 0.00 0.01 0.02 0.01 0.01 0.01 0.01 0.00 0.01 0.01 0.02 0.03 0.03 0.03 0.04 0.05 0.04 0.04 0.04 0.05 0.06 0.09 0.11 0.12 0.11 0.09 0.07 0.07 0.08 0.08 0.07 0.06 0.05
0.00 0.00 0.00 0.00 0.00 0.01 0.01 0.01 0.01 0.01 0.01 0.01 0.01 0.01 0.01 0.01 0.01 0.01 0.02 0.04 0.05 0.05 0.04 0.05 0.06 0.07 0.07 0.08 0.09 0.10 0.11 0.10 0.09 0.10 0.11 0.10 0.08 0.06
0.00 0.00 0.00 0.00 0.01 0.03 0.03 0.01 0.00 0.00 0.00 0.00 0.01 0.01 0.01 0.01 0.02 0.02 0.03 0.04 0.05 0.05 0.07 0.06 0.07 0.09 0.09 0.08 0.08 0.08 0.09 0.10 0.11 0.12 0.12 0.11 0.09 0.07
0.00 0.00 0.00 0.00 0.00 0.01 0.02 0.01 0.00 0.00 0.00 0.00 0.01 0.01 0.01 0.02 0.02 0.02 0.03 0.04 0.05 0.05 0.06 0.06 0.07 0.09 0.09 0.08 0.08 0.09 0.08 0.09 0.10 0.11 0.12 0.11 0.10 0.10
0.00 0.00 0.00 0.00 0.00 0.00 0.01 0.01 0.01 0.01 0.00 0.00 0.01 0.01 0.01 0.01 0.02 0.02 0.03 0.04 0.05 0.06 0.06 0.06 0.06 0.08 0.10 0.12 0.11 0.09 0.08 0.10 0.12 0.12 0.13 0.13 0.12 0.12
0.00 0.00 0.00 0.00 0.00 0.00 0.01 0.01 0.01 0.01 0.01 0.01 0.01 0.01 0.01 0.02 0.02 0.02 0.03 0.04 0.05 0.07 0.07 0.07 0.08 0.10 0.12 0.13 0.12 0.10 0.09 0.10 0.13 0.15 0.15 0.15 0.12 0.10
0.00 0.00 0.00 0.00 0.00 0.00 0.01 0.01 0.01 0.01 0.01 0.01 0.01 0.01 0.02 0.02 0.02 0.03 0.03 0.04 0.05 0.07 0.09 0.09 0.10 0.11 0.12 0.12 0.12 0.12 0.11 0.12 0.13 0.15 0.16 0.16 0.13 0.10
MSLP
1021.89 1021.93 1021.96 1021.96 1021.91 1021.78 1021.58 1021.31 1020.99 1020.64 1020.29 1019.96 1019.67 1019.42 1019.21 1019.04 1018.88 1018.74 1018.61 1018.47 1018.33 1018.19 1018.06 1017.93 1017.80 1017.67 1017.53 1017.39 1017.24 1017.09 1016.94 1016.80 1016.70 1016.64 1016.65 1016.72 1016.86 1017.07
1022.30 1022.32 1022.33 1022.31 1022.25 1022.11 1021.91 1021.65 1021.35 1021.02 1020.67 1020.34 1020.03 1019.73 1019.47 1019.22 1018.98 1018.76 1018.54 1018.33 1018.13 1017.95 1017.79 1017.64 1017.50 1017.37 1017.24 1017.09 1016.93 1016.76 1016.59 1016.43 1016.29 1016.19 1016.15 1016.18 1016.27 1016.44
1022.73 1022.73 1022.71 1022.67 1022.58 1022.45 1022.26 1022.02 1021.75 1021.45 1021.14 1020.82 1020.50 1020.18 1019.86 1019.54 1019.23 1018.91 1018.60 1018.31 1018.03 1017.79 1017.57 1017.38 1017.22 1017.06 1016.91 1016.75 1016.58 1016.40 1016.21 1016.03 1015.88 1015.75 1015.68 1015.67 1015.73 1015.85
1023.18 1023.15 1023.11 1023.04 1022.94 1022.81 1022.64 1022.44 1022.21 1021.96 1021.69 1021.39 1021.08 1020.75 1020.39 1020.02 1019.63 1019.23 1018.83 1018.44 1018.08 1017.75 1017.46 1017.21 1016.99 1016.78 1016.60 1016.41 1016.22 1016.02 1015.82 1015.64 1015.47 1015.34 1015.26 1015.23 1015.26 1015.34
1023.63 1023.58 1023.51 1023.43 1023.33 1023.20 1023.06 1022.90 1022.72 1022.51 1022.28 1022.02 1021.73 1021.39 1021.01 1020.59 1020.14 1019.66 1019.18 1018.70 1018.25 1017.83 1017.46 1017.12 1016.82 1016.56 1016.31 1016.07 1015.85 1015.63 1015.43 1015.24 1015.08 1014.96 1014.87 1014.84 1014.85 1014.90
1024.03 1023.96 1023.88 1023.79 1023.69 1023.58 1023.46 1023.34 1023.20 1023.03 1022.84 1022.61 1022.33 1022.00 1021.60 1021.15 1020.65 1020.12 1019.57 1019.02 1018.49 1017.99 1017.53 1017.10 1016.72 1016.37 1016.04 1015.75 1015.48 1015.23 1015.02 1014.83 1014.68 1014.57 1014.50 1014.46 1014.47 1014.50
1024.33 1024.25 1024.17 1024.07 1023.98 1023.88 1023.79 1023.68 1023.57 1023.43 1023.27 1023.05 1022.78 1022.44 1022.03 1021.57 1021.04 1020.48 1019.89 1019.30 1018.71 1018.14 1017.60 1017.09 1016.62 1016.18 1015.78 1015.41 1015.08 1014.80 1014.56 1014.37 1014.23 1014.14 1014.08 1014.06 1014.06 1014.08
1024.48 1024.40 1024.32 1024.23 1024.14 1024.06 1023.97 1023.87 1023.76 1023.63 1023.46 1023.24 1022.96 1022.62 1022.21 1021.74 1021.21 1020.64 1020.05 1019.44 1018.82 1018.21 1017.62 1017.04 1016.49 1015.97 1015.48 1015.04 1014.65 1014.32 1014.05 1013.84 1013.70 1013.61 1013.57 1013.56 1013.57 1013.58
1024.46 1024.39 1024.31 1024.23 1024.15 1024.07 1023.97 1023.86 1023.74 1023.58 1023.38 1023.14 1022.84 1022.49 1022.08 1021.61 1021.10 1020.56 1019.98 1019.39 1018.78 1018.16 1017.54 1016.92 1016.30 1015.71 1015.15 1014.63 1014.17 1013.78 1013.47 1013.24 1013.08 1012.99 1012.95 1012.94 1012.95 1012.96
1024.28 1024.23 1024.16 1024.09 1024.01 1023.91 1023.80 1023.66 1023.49 1023.29 1023.05 1022.77 1022.44 1022.07 1021.66 1021.21 1020.74 1020.24 1019.71 1019.16 1018.58 1017.98 1017.35 1016.71 1016.05 1015.40 1014.77 1014.18 1013.66 1013.21 1012.85 1012.58 1012.39 1012.28 1012.23 1012.21 1012.20 1012.21
1024.01 1023.96 1023.91 1023.85 1023.76 1023.64 1023.50 1023.31 1023.09 1022.83 1022.53 1022.20 1021.84 1021.45 1021.05 1020.63 1020.20 1019.76 1019.30 1018.80 1018.28 1017.71 1017.10 1016.45 1015.77 1015.07 1014.39 1013.74 1013.15 1012.64 1012.22 1011.90 1011.67 1011.52 1011.43 1011.38 1011.35 1011.34
1023.69 1023.65 1023.61 1023.54 1023.44 1023.30 1023.11 1022.88 1022.60 1022.28 1021.92 1021.54 1021.15 1020.75 1020.36 1019.98 1019.60 1019.22 1018.83 1018.40 1017.93 1017.40 1016.81 1016.16 1015.47 1014.74 1014.02 1013.32 1012.68 1012.11 1011.64 1011.26 1010.97 1010.77 1010.62 1010.52 1010.45 1010.40
1023.36 1023.33 1023.29 1023.21 1023.09 1022.92 1022.69 1022.40 1022.07 1021.69 1021.29 1020.87 1020.46 1020.06 1019.69 1019.35 1019.02 1018.70 1018.36 1018.00 1017.57 1017.08 1016.51 1015.87 1015.16 1014.42 1013.66 1012.93 1012.24 1011.63 1011.11 1010.67 1010.33 1010.06 1009.84 1009.68 1009.54 1009.43
1023.05 1023.02 1022.96 1022.86 1022.71 1022.50 1022.23 1021.90 1021.51 1021.09 1020.66 1020.22 1019.80 1019.42 1019.08 1018.77 1018.49 1018.22 1017.93 1017.60 1017.21 1016.74 1016.18 1015.53 1014.82 1014.07 1013.30 1012.54 1011.83 1011.19 1010.63 1010.15 1009.75 1009.41 1009.12 1008.87 1008.66 1008.48
1022.72 1022.67 1022.59 1022.46 1022.27 1022.02 1021.70 1021.32 1020.90 1020.46 1020.01 1019.57 1019.17 1018.81 1018.50 1018.23 1017.98 1017.74 1017.48 1017.18 1016.79 1016.32 1015.76 1015.11 1014.39 1013.63 1012.86 1012.10 1011.38 1010.73 1010.15 1009.64 1009.20 1008.80 1008.45 1008.12 1007.83 1007.57
1022.33 1022.24 1022.12 1021.94 1021.70 1021.40 1021.04 1020.64 1020.20 1019.74 1019.30 1018.88 1018.50 1018.17 1017.89 1017.66 1017.44 1017.21 1016.96 1016.65 1016.26 1015.77 1015.19 1014.53 1013.81 1013.05 1012.28 1011.53 1010.83 1010.19 1009.61 1009.10 1008.63 1008.19 1007.79 1007.40 1007.03 1006.70
1021.80 1021.67 1021.48 1021.25 1020.96 1020.61 1020.21 1019.79 1019.34 1018.89 1018.47 1018.08 1017.74 1017.44 1017.20 1016.98 1016.77 1016.55 1016.29 1015.96 1015.54 1015.03 1014.43 1013.75 1013.02 1012.27 1011.51 1010.79 1010.12 1009.51 1008.95 1008.44 1007.97 1007.52 1007.08 1006.66 1006.24 1005.86
1021.10 1020.90 1020.65 1020.36 1020.01 1019.62 1019.20 1018.76 1018.32 1017.89 1017.50 1017.15 1016.84 1016.58 1016.36 1016.16 1015.95 1015.72 1015.43 1015.07 1014.62 1014.07 1013.45 1012.76 1012.02 1011.28 1010.55 1009.86 1009.22 1008.65 1008.12 1007.64 1007.19 1006.74 1006.30 1005.86 1005.44 1005.05
1020.22 1019.96 1019.65 1019.30 1018.90 1018.48 1018.05 1017.61 1017.19 1016.79 1016.43 1016.12 1015.85 1015.62 1015.42 1015.22 1015.00 1014.75 1014.43 1014.03 1013.54 1012.97 1012.32 1011.62 1010.89 1010.16 1009.45 1008.79 1008.18 1007.64 1007.15 1006.69 1006.27 1005.84 1005.43 1005.01 1004.61 1004.24
1019.19 1018.88 1018.52 1018.13 1017.71 1017.28 1016.85 1016.43 1016.03 1015.67 1015.35 1015.07 1014.83 1014.62 1014.42 1014.21 1013.98 1013.70 1013.35 1012.92 1012.40 1011.81 1011.15 1010.44 1009.72 1009.00 1008.30 1007.66 1007.08 1006.55 1006.08 1005.65 1005.24 1004.85 1004.47 1004.10 1003.75 1003.46
1018.09 1017.74 1017.36 1016.96 1016.54 1016.12 1015.71 1015.32 1014.96 1014.63 1014.34 1014.09 1013.86 1013.65 1013.44 1013.22 1012.96 1012.66 1012.28 1011.83 1011.30 1010.70 1010.04 1009.34 1008.62 1007.91 1007.23 1006.59 1006.00 1005.47 1005.00 1004.57 1004.17 1003.80 1003.47 1003.16 1002.90 1002.70
1016.97 1016.62 1016.25 1015.86 1015.47 1015.08 1014.71 1014.37 1014.04 1013.75 1013.48 1013.23 1013.00 1012.77 1012.54 1012.29 1012.00 1011.67 1011.28 1010.82 1010.29 1009.71 1009.06 1008.38 1007.68 1006.98 1006.30 1005.65 1005.04 1004.49 1003.98 1003.53 1003.12 1002.77 1002.47 1002.23 1002.06 1001.99
1015.91 1015.58 1015.24 1014.90 1014.56 1014.22 1013.91 1013.60 1013.31 1013.03 1012.76 1012.49 1012.23 1011.97 1011.69 1011.40 1011.07 1010.72 1010.32 1009.87 1009.37 1008.81 1008.21 1007.57 1006.90 1006.22 1005.53 1004.87 1004.23 1003.62 1003.07 1002.57 1002.14 1001.79 1001.51 1001.33 1001.26 1001.32
Thickness
5694 5694 5694 5694 5694 5694 5695 5694 5692 5692 5694 5698 5700 5702 5703 5703 5703 5706 5708 5707 5708 5709 5711 5712 5713 5715 5717 5718 5719 5721 5722 5724 5726 5727 5727 5727 5728 5728
5689 5690 5690 5692 5691 5691 5692 5692 5692 5690 5690 5695 5696 5698 5698 5700 5700 5701 5703 5703 5705 5706 5707 5708 5709 5711 5713 5714 5715 5717 5718 5720 5721 5722 5723 5724 5725 5725
5690 5689 5687 5687 5688 5689 5689 5689 5689 5689 5687 5691 5694 5695 5694 5695 5696 5697 5699 5701 5703 5702 5703 5704 5705 5706 5708 5709 5711 5712 5713 5715 5716 5717 5718 5720 5720 5721
5686 5685 5684 5683 5683 5684 5684 5685 5685 5685 5685 5683 5688 5689 5689 5690 5690 5691 5694 5696 5697 5698 5698 5699 5700 5702 5703 5704 5706 5707 5708 5709 5711 5712 5713 5714 5715 5716
5682 5681 5681 5680 5679 5679 5679 5680 5680 5681 5680 5680 5682 5682 5684 5684 5684 5686 5688 5688 5690 5692 5693 5694 5695 5696 5698 5699 5701 5702 5703 5704 5705 5706 5707 5708 5710 5710
5678 5676 5675 5674 5673 5674 5674 5674 5674 5674 5674 5675 5675 5676 5677 5677 5677 5678 5679 5681 5683 5685 5687 5688 5689 5690 5692 5694 5695 5697 5698 5699 5700 5701 5701 5703 5704 5705
5674 5672 5669 5666 5664 5664 5665 5666 5666 5667 5668 5668 5668 5669 5669 5668 5668 5669 5669 5672 5675 5677 5678 5680 5682 5685 5687 5688 5689 5690 5691 5693 5694 5695 5696 5697 5698 5699
5668 5667 5665 5662 5659 5657 5656 5655 5655 5657 5658 5659 5660 5660 5660 5660 5658 5658 5659 5661 5663 5667 5666 5669 5672 5675 5678 5681 5683 5683 5684 5685 5687 5688 5689 5690 5691 5692
5662 5660 5658 5656 5653 5654 5653 5651 5650 5648 5646 5647 5650 5650 5650 5651 5649 5648 5648 5649 5650 5654 5655 5658 5662 5665 5669 5672 5673 5674 5676 5677 5679 5681 5682 5683 5684 5685
5654 5652 5650 5649 5646 5643 5645 5645 5646 5644 5641 5640 5640 5639 5638 5637 5636 5635 5636 5638 5641 5644 5644 5646 5652 5656 5660 5662 5663 5664 5666 5668 5670 5672 5674 5676 5677 5678
5647 5644 5641 5640 5635 5632 5634 5636 5636 5636 5633 5630 5628 5626 5624 5623 5621 5621 5623 5624 5628 5632 5634 5633 5638 5642 5646 5650 5653 5655 5656 5658 5661 5663 5665 5667 5668 5669
5639 5636 5631 5628 5624 5622 5624 5626 5625 5625 5624 5623 5621 5619 5617 5615 5611 5608 5609 5609 5612 5615 5619 5617 5621 5624 5629 5637 5640 5642 5644 5647 5650 5653 5655 5658 5659 5659
5630 5628 5624 5618 5615 5613 5612 5613 5612 5610 5611 5611 5611 5609 5607 5604 5601 5597 5594 5592 5593 5596 5599 5597 5601 5604 5608 5617 5623 5626 5630 5634 5638 5642 5645 5647 5649 5650
5619 5617 5614 5608 5605 5603 5603 5601 5599 5597 5599 5599 5598 5596 5593 5591 5588 5585 5581 5578 5576 5578 5579 5579 5581 5585 5588 5596 5604 5611 5615 5619 5623 5628 5633 5636 5638 5640
5608 5604 5600 5598 5596 5596 5594 5591 5589 5589 5588 5586 5584 5582 5579 5576 5573 5570 5568 5565 5563 5563 5563 5563 5565 5568 5571 5578 5586 5592 5597 5603 5608 5613 5618 5623 5627 5630
5599 5596 5592 5590 5587 5585 5585 5584 5581 5578 5574 5571 5569 5567 5564 5561 5558 5555 5553 5552 5551 5552 5550 5549 5550 5552 5556 5562 5568 5575 5581 5587 5593 5598 5603 5608 5614 5618
5587 5586 5585 5584 5582 5580 5577 5574 5569 5566 5562 5558 5555 5552 5549 5546 5543 5540 5537 5535 5535 5536 5538 5537 5536 5538 5541 5546 5553 5560 5565 5571 5577 5582 5586 5594 5601 5606
5575 5576 5575 5573 5570 5567 5564 5561 5557 5552 5547 5543 5539 5535 5532 5530 5527 5525 5522 5520 5519 5520 5521 5521 5521 5523 5528 5535 5538 5544 5551 5557 5562 5566 5571 5578 5587 5593
5566 5567 5565 5562 5558 5554 5551 5547 5543 5539 5533 5528 5524 5520 5517 5514 5511 5509 5507 5505 5505 5505 5505 5505 5505 5506 5512 5522 5532 5529 5534 5541 5546 5551 5556 5564 5572 5580
5559 5556 5553 5550 5546 5542 5537 5533 5529 5524 5519 5514 5510 5505 5501 5499 5497 5495 5493 5491 5489 5489 5490 5491 5491 5492 5495 5502 5513 5521 5520 5525 5530 5536 5542 5548 5556 5563
5550 5546 5542 5538 5533 5529 5524 5519 5514 5509 5504 5499 5496 5491 5488 5485 5483 5481 5479 5476 5473 5473 5475 5478 5478 5477 5480 5485 5495 5507 5511 5512 5515 5520 5526 5532 5541 5548
5540 5535 5531 5526 5521 5516 5510 5505 5500 5496 5490 5486 5482 5479 5475 5471 5469 5467 5465 5463 5461 5461 5462 5464 5465 5466 5469 5475 5484 5492 5498 5501 5504 5507 5513 5519 5528 5539
5529 5524 5519 5514 5508 5502 5497 5492 5487 5483 5477 5473 5469 5466 5462 5459 5456 5453 5452 5450 5448 5448 5449 5451 5454 5457 5461 5466 5472 5479 5485 5490 5493 5498 5504 5511 5518 5525